Regional Weather Roundup
Issued by NWS

Home | Current Version | Previous Version | Text Only | Print | Product List | Glossary On
Versions: 1 2 3 4 5 6 7 8 9 10 11 12 13 14 15 16 17 18 19 20 21 22 23 24 25 26 27 28 29 30 31 32 33 34 35 36 37 38 39 40 41 42 43 44 45 46 47 48 49 50
000
ASUS43 KLOT 232009
RWRIL

ILLINOIS REGIONAL WEATHER ROUNDUP
NATIONAL WEATHER SERVICE CHICAGO/ROMEOVILLE IL
300 PM CDT WED AUG 23 2017

NOTE: "FAIR" INDICATES FEW OR NO CLOUDS BELOW 12,000 FEET WITH NO
SIGNIFICANT WEATHER AND/OR OBSTRUCTIONS TO VISIBILITY.

* THESE STATIONS ARE NOT UNDER NWS QUALITY CONTROL. THEY ALSO MAY NOT
  REPORT WEATHER SUCH AS PRECIPITATION OR FOG.

ILZ001-002-007-009-015-016-024-232100-
NORTHWEST ILLINOIS

CITY           SKY/WX    TMP DP  RH WIND       PRES   REMARKS
MOLINE         MOSUNNY   80  48  32 NW14G21   30.06F
STERLING*      PTSUNNY   77  51  40 W13G20    30.06F
SAVANNA*       PTSUNNY   75  49  39 NW12G18   30.06F
$$

ILZ003-004-008-010-011-017-018-232100-
NORTH CENTRAL ILLINOIS

CITY           SKY/WX    TMP DP  RH WIND       PRES   REMARKS
ROCKFORD       MOSUNNY   76  50  40 NW8       30.05F
FREEPORT*      PTSUNNY   73  50  44 NW13      30.07F
ROCHELLE*      MOSUNNY   73  51  45 NW9       30.06S
DE KALB*       MOSUNNY   71  53  53 NW7       30.06S
PERU*          MOSUNNY   74  50  42 NW9       30.05F
$$

ILZ005-006-012>014-019>023-232100-
NORTHEAST ILLINOIS

CITY           SKY/WX    TMP DP  RH WIND       PRES   REMARKS
CHICAGO-OHARE  MOSUNNY   77  50  38 NW12G21   30.02F
CHICAGO-MIDWAY MOSUNNY   77  50  38 NW7       30.01F
AURORA         SUNNY     75  54  47 NW12      30.04F
LANSING*       PTSUNNY   72  58  60 CALM      30.02S
JOLIET*        PTSUNNY   77  54  45 NW5       30.03F
WAUKEGAN       PTSUNNY   71  52  50 NW7       30.02F
DUPAGE AIRPORT MOSUNNY   76  53  44 NW14      30.03S
KANKAKEE*      MOSUNNY   74  53  47 NW7       30.04F
WHEELING       MOSUNNY   77  51  40 W12       30.03F
MORRIS*        MOSUNNY   76  55  48 NW8       30.03F
ROMEOVILLE*    CLOUDY    75  55  49 W13G18    30.03F
NORTHERLY ISL    N/A     69  57  65 NE10        N/A
$$

LMZ740>746-232100-
SOUTHERN LAKE MICHIGAN

STATION/POSITION SKY/WX   TEMP    WIND        PRES    VSBY  WAVE
                          AIR SEA DIR/SP/G                  HT/PER
                          (F)     (DEG/KT/KT) (MB)    (MI)  (FT/S)
SOUTHERN BUOY              66 71  350/ 12/ 14 1017.1          3/ 5
WILMETTE HARBOR            69 73   50/ 10/ 14   N/A           2/ 5
HARRISON CRIB              70      40/ 11/ 13   N/A
CALUMET HARBOR             70      40/  7/ 11 1016.1F
BURNS HARBOR               70      40/ 10/ 12 1017.3F
MICHIGAN CITY              67      10/ 15/ 17   N/A
MICHIGAN CITY 6N           68 74   30/ 12/ 16   N/A           4/ 6
ST. JOSEPH                 68 74   10/ 12/ 16 1017.0          4/ 5
$$

ILZ025>027-034>036-040-047-049-050-058-095>099-232100-
WEST-CENTRAL ILLINOIS

CITY           SKY/WX    TMP DP  RH WIND       PRES   REMARKS
QUINCY         SUNNY     77  49  37 NE8       30.09F
GALESBURG*     SUNNY     76  51  41 NW9       30.08F
MACOMB*        SUNNY     76  52  43 N7        30.10F
JACKSONVILLE*  SUNNY     75  52  44 W6        30.08F
PITTSFIELD*    SUNNY     76  53  45 N9        30.10F
$$

ILZ028>032-037-038-041>044-048-051>054-059>061-232100-
CENTRAL ILLINOIS

CITY           SKY/WX    TMP DP  RH WIND       PRES   REMARKS
PONTIAC        MOSUNNY   76  55  47 NW12      30.05F
BLOOMINGTON    MOSUNNY   76  49  38 N8        30.07F
DECATUR        MOSUNNY   78  50  37 NW7G16    30.06F
PEORIA         MOSUNNY   78  48  34 VRB7      30.06F
LACON*         MOSUNNY   77  51  39 W8        30.05F
LINCOLN*       MOSUNNY   77  52  42 NW3       30.07F
SPRINGFIELD    SUNNY     78  54  43 N6        30.07F
TAYLORVILLE    MOSUNNY   75  54  47 N6        30.07F
$$

ILZ033-039-045-046-055>057-062-063-232100-
EAST-CENTRAL ILLINOIS

CITY           SKY/WX    TMP DP  RH WIND       PRES   REMARKS
CHAMPAIGN      MOSUNNY   78  51  38 NW10G17   30.06F
RANTOUL*       SUNNY     78  51  39 NW10G16   30.06F
MATTOON        MOSUNNY   76  54  46 N9        30.05F
PARIS*         MOSUNNY   78  52  40 N7        30.05F
$$

ILZ079-100>102-232100-
SOUTHWEST ILLINOIS

CITY           SKY/WX    TMP DP  RH WIND       PRES   REMARKS
ALTON          SUNNY     77  57  50 N6        30.07F
BELLEVILLE     SUNNY     78  55  45 CALM      30.08F
CAHOKIA*       MOSUNNY   80  50  34 NW7       30.07F HX  80
SPARTA*        SUNNY     77  54  44 NE5       30.08F
$$

ILZ064>066-069>071-074>076-080>082-084>086-088>090-092>094-232100-
SOUTH-CENTRAL ILLINOIS

CITY           SKY/WX    TMP DP  RH WIND       PRES   REMARKS
CARBONDALE     MOSUNNY   80  57  45 N8        30.05F HX  80
CAIRO*         MOSUNNY   78  58  49 N7        30.03F
EFFINGHAM*     MOSUNNY   78  54  42 CALM      30.07F
MARION         MOSUNNY   79  54  41 N13       30.06F
MT. VERNON       N/A     78  52  40 VRB5      30.06F
CENTRALIA*     MOSUNNY   78  57  48 CALM      30.05F
SALEM*         SUNNY     79  54  41 N8        30.06F
METROPOLIS*    LGT RAIN  80  59  48 N8        30.04F HX  80
$$

ILZ067-068-072-073-078-083-087-091-232100-
SOUTHEAST ILLINOIS

CITY           SKY/WX    TMP DP  RH WIND       PRES   REMARKS
LAWRENCEVILLE  MOSUNNY   78  54  43 VRB6      30.05F
FLORA*         MOSUNNY   78  56  46 N8        30.05F
FAIRFIELD*     MOSUNNY   77  54  44 NW3       30.04F
HARRISBURG*    MOSUNNY   79  56  44 NW6G16    30.05F HX  80
ROBINSON*      PTSUNNY   76  55  48 N8        30.05F
CARMI*         SUNNY     76  60  56 N10       30.04F
$$

ABBREVIATIONS USED IN REMARKS
   TC - TEMPERATURE IN CELSIUS
  WCI - WIND CHILL INDEX
   HX - HEAT INDEX
  VSB - VISIBILITY
$$




USA.gov is the U.S. government's official web portal to all federal, state and local government web resources and services.